Wetterdaten: Sonntag, 03.10.2010
Datum Zeit Temp. A. Feuchte A. Luftdruck Regen Wind Richtung Richtung Sonnenschein UV Solar Windben
03.10.2010 00:00 13,7 C 90 % 1011,4 hPa 0,0 mm 1,6 km/h (1 Bft) O-SO 112 0 min 0 UV-I 0 W/m 6,4 km/h (2 Bft)
03.10.2010 00:10 13,8 C 90 % 1011,3 hPa 0,0 mm 1,6 km/h (1 Bft) O-SO 112 0 min 0 UV-I 0 W/m 6,4 km/h (2 Bft)
03.10.2010 00:20 13,8 C 90 % 1011,2 hPa 0,0 mm 1,6 km/h (1 Bft) O-SO 112 0 min 0 UV-I 0 W/m 8,0 km/h (2 Bft)
03.10.2010 00:30 13,9 C 90 % 1011,2 hPa 0,0 mm 1,6 km/h (1 Bft) O-SO 112 0 min 0 UV-I 0 W/m 8,0 km/h (2 Bft)
03.10.2010 00:40 13,9 C 90 % 1011,1 hPa 0,0 mm 1,6 km/h (1 Bft) O-SO 112 0 min 0 UV-I 0 W/m 8,0 km/h (2 Bft)
03.10.2010 00:50 14,0 C 90 % 1011,0 hPa 0,0 mm 1,6 km/h (1 Bft) O-SO 112 0 min 0 UV-I 0 W/m 9,7 km/h (2 Bft)
03.10.2010 01:00 14,0 C 90 % 1011,0 hPa 0,0 mm 1,6 km/h (1 Bft) O 90 0 min 0 UV-I 0 W/m 9,7 km/h (2 Bft)
03.10.2010 01:10 14,1 C 90 % 1010,9 hPa 0,0 mm 1,6 km/h (1 Bft) SO 135 0 min 0 UV-I 0 W/m 6,4 km/h (2 Bft)
03.10.2010 01:20 14,1 C 90 % 1010,8 hPa 0,0 mm 1,6 km/h (1 Bft) SO 135 0 min 0 UV-I 0 W/m 9,7 km/h (2 Bft)
03.10.2010 01:30 14,2 C 90 % 1010,6 hPa 0,0 mm 3,2 km/h (1 Bft) O-SO 112 0 min 0 UV-I 0 W/m 14,5 km/h (3 Bft)
03.10.2010 01:40 14,3 C 90 % 1010,6 hPa 0,0 mm 1,6 km/h (1 Bft) SO 135 0 min 0 UV-I 0 W/m 8,0 km/h (2 Bft)
03.10.2010 01:50 14,3 C 90 % 1010,4 hPa 0,0 mm 3,2 km/h (1 Bft) O-SO 112 0 min 0 UV-I 0 W/m 12,9 km/h (3 Bft)
03.10.2010 02:00 14,3 C 90 % 1010,4 hPa 0,0 mm 3,7 km/h (1 Bft) O 90 0 min 0 UV-I 0 W/m 16,1 km/h (3 Bft)
03.10.2010 02:10 14,3 C 90 % 1010,4 hPa 0,0 mm 3,5 km/h (1 Bft) S-SW 199 0 min 0 UV-I 0 W/m 16,1 km/h (3 Bft)
03.10.2010 02:20 14,4 C 90 % 1010,2 hPa 0,0 mm 4,8 km/h (1 Bft) O 86 0 min 0 UV-I 0 W/m 17,7 km/h (3 Bft)
03.10.2010 02:30 14,4 C 90 % 1010,2 hPa 0,0 mm 4,9 km/h (1 Bft) O 92 0 min 0 UV-I 0 W/m 22,5 km/h (4 Bft)
03.10.2010 02:40 14,4 C 90 % 1010,2 hPa 0,0 mm 5,3 km/h (1 Bft) O-SO 107 0 min 0 UV-I 0 W/m 16,1 km/h (3 Bft)
03.10.2010 02:50 14,5 C 90 % 1010,1 hPa 0,0 mm 4,5 km/h (1 Bft) O 98 0 min 0 UV-I 0 W/m 11,3 km/h (2 Bft)
03.10.2010 03:00 14,6 C 90 % 1010,2 hPa 0,0 mm 5,8 km/h (2 Bft) O-SO 108 0 min 0 UV-I 0 W/m 20,9 km/h (4 Bft)
03.10.2010 03:10 14,6 C 90 % 1010,1 hPa 0,0 mm 6,7 km/h (2 Bft) O-SO 110 0 min 0 UV-I 0 W/m 17,7 km/h (3 Bft)
03.10.2010 03:20 14,7 C 92 % 1010,1 hPa 0,0 mm 4,5 km/h (1 Bft) SO 132 0 min 0 UV-I 0 W/m 11,3 km/h (2 Bft)
03.10.2010 03:30 14,7 C 90 % 1010,1 hPa 0,0 mm 4,8 km/h (1 Bft) O-SO 112 0 min 0 UV-I 0 W/m 16,1 km/h (3 Bft)
03.10.2010 03:40 14,7 C 89 % 1010,2 hPa 0,0 mm 3,2 km/h (1 Bft) O-SO 112 0 min 0 UV-I 0 W/m 11,3 km/h (2 Bft)
03.10.2010 03:50 14,7 C 89 % 1010,0 hPa 0,0 mm 3,2 km/h (1 Bft) O-SO 112 0 min 0 UV-I 0 W/m 9,7 km/h (2 Bft)
03.10.2010 04:00 14,7 C 89 % 1010,0 hPa 0,0 mm 1,6 km/h (1 Bft) O-SO 112 0 min 0 UV-I 0 W/m 9,7 km/h (2 Bft)
03.10.2010 04:10 14,7 C 89 % 1009,9 hPa 0,0 mm 1,6 km/h (1 Bft) O-SO 112 0 min 0 UV-I 0 W/m 8,0 km/h (2 Bft)
03.10.2010 04:20 14,6 C 89 % 1009,8 hPa 0,0 mm 3,2 km/h (1 Bft) O-SO 112 0 min 0 UV-I 0 W/m 9,7 km/h (2 Bft)
03.10.2010 04:30 14,6 C 89 % 1009,7 hPa 0,0 mm 1,6 km/h (1 Bft) O-SO 112 0 min 0 UV-I 0 W/m 6,4 km/h (2 Bft)
03.10.2010 04:40 14,6 C 89 % 1009,5 hPa 0,0 mm 1,6 km/h (1 Bft) O-SO 112 0 min 0 UV-I 0 W/m 8,0 km/h (2 Bft)
03.10.2010 04:50 14,5 C 89 % 1009,3 hPa 0,0 mm 3,2 km/h (1 Bft) O 90 0 min 0 UV-I 0 W/m 8,0 km/h (2 Bft)
03.10.2010 05:00 14,4 C 89 % 1009,2 hPa 0,0 mm 1,6 km/h (1 Bft) O-SO 112 0 min 0 UV-I 0 W/m 8,0 km/h (2 Bft)
03.10.2010 05:10 14,4 C 89 % 1008,9 hPa 0,0 mm 3,2 km/h (1 Bft) O-SO 112 0 min 0 UV-I 0 W/m 9,7 km/h (2 Bft)
03.10.2010 05:20 14,5 C 89 % 1009,0 hPa 0,0 mm 1,6 km/h (1 Bft) O-SO 112 0 min 0 UV-I 0 W/m 9,7 km/h (2 Bft)
03.10.2010 05:30 14,6 C 90 % 1008,8 hPa 0,0 mm 1,6 km/h (1 Bft) O-NO 67 0 min 0 UV-I 0 W/m 14,5 km/h (3 Bft)
03.10.2010 05:40 14,7 C 90 % 1008,8 hPa 0,3 mm 1,6 km/h (1 Bft) SO 135 0 min 0 UV-I 0 W/m 9,7 km/h (2 Bft)
03.10.2010 05:50 14,8 C 90 % 1008,7 hPa 0,0 mm 1,6 km/h (1 Bft) SO 135 0 min 0 UV-I 0 W/m 9,7 km/h (2 Bft)
03.10.2010 06:00 14,8 C 90 % 1008,7 hPa 0,0 mm 1,6 km/h (1 Bft) S 180 0 min 0 UV-I 0 W/m 6,4 km/h (2 Bft)
03.10.2010 06:10 14,8 C 90 % 1008,4 hPa 0,0 mm 4,8 km/h (1 Bft) O-SO 112 0 min 0 UV-I 0 W/m 14,5 km/h (3 Bft)
03.10.2010 06:20 14,8 C 90 % 1008,4 hPa 0,0 mm 4,8 km/h (1 Bft) O-SO 112 0 min 0 UV-I 0 W/m 16,1 km/h (3 Bft)
03.10.2010 06:30 14,9 C 90 % 1008,5 hPa 0,0 mm 3,2 km/h (1 Bft) SO 135 0 min 0 UV-I 0 W/m 14,5 km/h (3 Bft)
03.10.2010 06:40 14,9 C 89 % 1008,3 hPa 0,0 mm 4,8 km/h (1 Bft) S-SO 157 0 min 0 UV-I 0 W/m 16,1 km/h (3 Bft)
03.10.2010 06:50 14,9 C 89 % 1008,4 hPa 0,0 mm 3,2 km/h (1 Bft) S-SO 157 0 min 0 UV-I 0 W/m 11,3 km/h (2 Bft)
03.10.2010 07:00 14,9 C 89 % 1008,2 hPa 0,0 mm 4,8 km/h (1 Bft) O-SO 112 0 min 0 UV-I 0 W/m 19,3 km/h (3 Bft)
03.10.2010 07:10 15,0 C 89 % 1008,5 hPa 0,0 mm 3,2 km/h (1 Bft) O-SO 112 0 min 0 UV-I 0 W/m 11,3 km/h (2 Bft)
03.10.2010 07:20 15,1 C 89 % 1008,6 hPa 0,0 mm 3,2 km/h (1 Bft) SO 135 0 min 0 UV-I 0 W/m 11,3 km/h (2 Bft)
03.10.2010 07:30 15,1 C 88 % 1008,1 hPa 0,3 mm 8,0 km/h (2 Bft) O-SO 112 0 min 0 UV-I 0 W/m 20,9 km/h (4 Bft)
03.10.2010 07:40 15,1 C 88 % 1008,2 hPa 0,0 mm 6,4 km/h (2 Bft) SO 135 0 min 0 UV-I 0 W/m 19,3 km/h (3 Bft)
03.10.2010 07:50 15,1 C 88 % 1008,1 hPa 0,0 mm 6,4 km/h (2 Bft) O-SO 112 0 min 0 UV-I 5 W/m 22,5 km/h (4 Bft)
03.10.2010 08:00 15,1 C 88 % 1008,2 hPa 0,0 mm 6,2 km/h (2 Bft) SO 130 0 min 0 UV-I 10 W/m 11,3 km/h (2 Bft)
03.10.2010 08:10 15,1 C 88 % 1008,1 hPa 0,0 mm 4,8 km/h (1 Bft) O-SO 112 0 min 0 UV-I 16 W/m 19,3 km/h (3 Bft)
03.10.2010 08:20 15,1 C 88 % 1008,3 hPa 0,0 mm 3,2 km/h (1 Bft) O-SO 112 0 min 0 UV-I 21 W/m 16,1 km/h (3 Bft)
03.10.2010 08:30 15,1 C 88 % 1008,3 hPa 0,0 mm 3,2 km/h (1 Bft) SO 135 0 min 0 UV-I 19 W/m 17,7 km/h (3 Bft)
03.10.2010 08:40 15,1 C 88 % 1008,7 hPa 0,0 mm 1,6 km/h (1 Bft) S-SW 202 0 min 0 UV-I 25 W/m 17,7 km/h (3 Bft)
03.10.2010 08:50 15,1 C 88 % 1008,6 hPa 0,0 mm 4,8 km/h (1 Bft) O-SO 112 0 min 0 UV-I 30 W/m 20,9 km/h (4 Bft)
03.10.2010 09:00 15,1 C 87 % 1008,5 hPa 0,0 mm 3,2 km/h (1 Bft) O-SO 112 0 min 0 UV-I 32 W/m 14,5 km/h (3 Bft)
03.10.2010 09:10 15,1 C 87 % 1008,6 hPa 0,0 mm 3,2 km/h (1 Bft) SO 135 0 min 0 UV-I 33 W/m 9,7 km/h (2 Bft)
03.10.2010 09:20 15,1 C 87 % 1008,6 hPa 0,0 mm 4,8 km/h (1 Bft) O-SO 112 0 min 0 UV-I 53 W/m 19,3 km/h (3 Bft)
03.10.2010 09:30 15,1 C 87 % 1008,5 hPa 0,0 mm 6,4 km/h (2 Bft) O-SO 112 0 min 0 UV-I 67 W/m 22,5 km/h (4 Bft)
03.10.2010 09:40 15,1 C 87 % 1008,6 hPa 0,0 mm 4,8 km/h (1 Bft) SO 135 0 min 1 UV-I 76 W/m 14,5 km/h (3 Bft)
03.10.2010 09:50 15,1 C 87 % 1008,8 hPa 0,0 mm 3,2 km/h (1 Bft) SO 135 0 min 1 UV-I 113 W/m 17,7 km/h (3 Bft)
03.10.2010 10:00 15,3 C 86 % 1008,6 hPa 0,0 mm 4,8 km/h (1 Bft) SO 135 0 min 1 UV-I 114 W/m 17,7 km/h (3 Bft)
03.10.2010 10:10 15,4 C 86 % 1008,7 hPa 0,0 mm 3,2 km/h (1 Bft) S 180 0 min 1 UV-I 105 W/m 17,7 km/h (3 Bft)
03.10.2010 10:20 15,6 C 85 % 1008,5 hPa 0,0 mm 4,8 km/h (1 Bft) S-SO 157 0 min 1 UV-I 105 W/m 24,1 km/h (4 Bft)
03.10.2010 10:30 15,6 C 85 % 1008,5 hPa 0,0 mm 3,2 km/h (1 Bft) SO 135 0 min 1 UV-I 123 W/m 14,5 km/h (3 Bft)
03.10.2010 10:40 15,7 C 85 % 1008,5 hPa 0,0 mm 6,4 km/h (2 Bft) O-SO 112 0 min 1 UV-I 167 W/m 17,7 km/h (3 Bft)
03.10.2010 10:50 15,8 C 84 % 1008,5 hPa 0,0 mm 6,4 km/h (2 Bft) O-SO 112 0 min 2 UV-I 237 W/m 17,7 km/h (3 Bft)
03.10.2010 11:00 16,4 C 82 % 1008,6 hPa 0,0 mm 4,8 km/h (1 Bft) SO 135 10 min 2 UV-I 417 W/m 20,9 km/h (4 Bft)
03.10.2010 11:10 16,7 C 81 % 1008,6 hPa 0,0 mm 6,4 km/h (2 Bft) SO 135 10 min 2 UV-I 466 W/m 24,1 km/h (4 Bft)
03.10.2010 11:20 16,7 C 81 % 1008,5 hPa 0,0 mm 4,8 km/h (1 Bft) SO 135 0 min 2 UV-I 227 W/m 16,1 km/h (3 Bft)
03.10.2010 11:30 16,7 C 80 % 1008,4 hPa 0,0 mm 6,4 km/h (2 Bft) O-SO 112 0 min 2 UV-I 255 W/m 17,7 km/h (3 Bft)
03.10.2010 11:40 17,0 C 80 % 1008,6 hPa 0,0 mm 4,8 km/h (1 Bft) SO 135 0 min 2 UV-I 244 W/m 24,1 km/h (4 Bft)
03.10.2010 11:50 17,3 C 78 % 1008,6 hPa 0,0 mm 4,8 km/h (1 Bft) SO 135 10 min 2 UV-I 411 W/m 17,7 km/h (3 Bft)
03.10.2010 12:00 17,5 C 78 % 1008,6 hPa 0,0 mm 6,4 km/h (2 Bft) SO 135 0 min 2 UV-I 281 W/m 19,3 km/h (3 Bft)
03.10.2010 12:10 17,5 C 78 % 1008,4 hPa 0,0 mm 4,8 km/h (1 Bft) O-SO 112 0 min 2 UV-I 253 W/m 16,1 km/h (3 Bft)
03.10.2010 12:20 17,7 C 78 % 1008,3 hPa 0,0 mm 3,2 km/h (1 Bft) O-SO 112 10 min 2 UV-I 353 W/m 12,9 km/h (3 Bft)
03.10.2010 12:30 17,9 C 77 % 1008,1 hPa 0,0 mm 4,8 km/h (1 Bft) O-SO 112 10 min 3 UV-I 387 W/m 20,9 km/h (4 Bft)
03.10.2010 12:40 17,9 C 77 % 1008,1 hPa 0,0 mm 3,9 km/h (1 Bft) SO 125 0 min 2 UV-I 188 W/m 9,7 km/h (2 Bft)
03.10.2010 12:50 17,9 C 77 % 1008,1 hPa 0,0 mm 4,6 km/h (1 Bft) O 82 0 min 2 UV-I 198 W/m 16,1 km/h (3 Bft)
03.10.2010 13:00 18,6 C 76 % 1008,2 hPa 0,0 mm 5,2 km/h (1 Bft) SO 144 10 min 3 UV-I 426 W/m 16,1 km/h (3 Bft)
03.10.2010 13:10 18,7 C 74 % 1007,9 hPa 0,0 mm 5,7 km/h (1 Bft) S 183 10 min 3 UV-I 386 W/m 14,5 km/h (3 Bft)
03.10.2010 13:20 18,4 C 75 % 1007,8 hPa 0,0 mm 6,2 km/h (2 Bft) O-SO 119 0 min 2 UV-I 247 W/m 16,1 km/h (3 Bft)
03.10.2010 13:30 18,3 C 76 % 1007,6 hPa 0,0 mm 6,8 km/h (2 Bft) SO 125 0 min 2 UV-I 214 W/m 24,1 km/h (4 Bft)
03.10.2010 13:40 18,3 C 77 % 1007,5 hPa 0,0 mm 5,4 km/h (1 Bft) S-SO 159 0 min 2 UV-I 214 W/m 19,3 km/h (3 Bft)
03.10.2010 13:50 19,1 C 76 % 1007,4 hPa 0,0 mm 6,2 km/h (2 Bft) O-SO 103 10 min 3 UV-I 466 W/m 20,9 km/h (4 Bft)
03.10.2010 14:00 19,7 C 74 % 1007,2 hPa 0,0 mm 5,2 km/h (1 Bft) S 184 10 min 3 UV-I 450 W/m 14,5 km/h (3 Bft)
03.10.2010 14:10 19,4 C 75 % 1007,2 hPa 0,0 mm 5,4 km/h (1 Bft) O-SO 107 0 min 2 UV-I 256 W/m 16,1 km/h (3 Bft)
03.10.2010 14:20 19,9 C 76 % 1007,1 hPa 0,0 mm 3,0 km/h (1 Bft) O 96 10 min 3 UV-I 313 W/m 8,0 km/h (2 Bft)
03.10.2010 14:30 21,2 C 71 % 1006,8 hPa 0,0 mm 5,2 km/h (1 Bft) SO 140 10 min 3 UV-I 673 W/m 16,1 km/h (3 Bft)
03.10.2010 14:40 21,5 C 68 % 1006,9 hPa 0,0 mm 4,8 km/h (1 Bft) O-SO 112 10 min 3 UV-I 742 W/m 9,7 km/h (2 Bft)
03.10.2010 14:50 21,8 C 68 % 1006,8 hPa 0,0 mm 3,2 km/h (1 Bft) S 180 10 min 3 UV-I 629 W/m 11,3 km/h (2 Bft)
03.10.2010 15:00 21,9 C 68 % 1006,7 hPa 0,0 mm 4,8 km/h (1 Bft) SO 135 10 min 3 UV-I 561 W/m 19,3 km/h (3 Bft)
03.10.2010 15:10 21,9 C 68 % 1006,6 hPa 0,0 mm 6,4 km/h (2 Bft) O-SO 112 10 min 3 UV-I 566 W/m 16,1 km/h (3 Bft)
03.10.2010 15:20 22,0 C 67 % 1006,5 hPa 0,0 mm 4,8 km/h (1 Bft) O-SO 112 10 min 2 UV-I 603 W/m 19,3 km/h (3 Bft)
03.10.2010 15:30 22,4 C 64 % 1006,3 hPa 0,0 mm 6,4 km/h (2 Bft) O-SO 112 10 min 2 UV-I 613 W/m 19,3 km/h (3 Bft)
03.10.2010 15:40 22,5 C 64 % 1006,3 hPa 0,0 mm 4,8 km/h (1 Bft) SO 135 10 min 2 UV-I 548 W/m 19,3 km/h (3 Bft)
03.10.2010 15:50 22,5 C 65 % 1006,2 hPa 0,0 mm 4,8 km/h (1 Bft) O-SO 112 10 min 2 UV-I 538 W/m 19,3 km/h (3 Bft)
03.10.2010 16:00 22,4 C 66 % 1006,1 hPa 0,0 mm 2,7 km/h (1 Bft) O-SO 110 10 min 2 UV-I 471 W/m 12,9 km/h (3 Bft)
03.10.2010 16:10 22,5 C 66 % 1005,8 hPa 0,0 mm 4,8 km/h (1 Bft) O-SO 112 10 min 2 UV-I 468 W/m 12,9 km/h (3 Bft)
03.10.2010 16:20 22,2 C 67 % 1005,8 hPa 0,0 mm 4,8 km/h (1 Bft) O 90 10 min 2 UV-I 420 W/m 16,1 km/h (3 Bft)
03.10.2010 16:30 22,2 C 67 % 1005,8 hPa 0,0 mm 4,8 km/h (1 Bft) O 90 10 min 1 UV-I 408 W/m 17,7 km/h (3 Bft)
03.10.2010 16:40 22,4 C 67 % 1005,7 hPa 0,0 mm 6,4 km/h (2 Bft) O-SO 112 10 min 1 UV-I 378 W/m 14,5 km/h (3 Bft)
03.10.2010 16:50 22,6 C 66 % 1005,5 hPa 0,0 mm 4,8 km/h (1 Bft) O-SO 112 10 min 1 UV-I 350 W/m 9,7 km/h (2 Bft)
03.10.2010 17:00 22,5 C 68 % 1005,4 hPa 0,0 mm 3,2 km/h (1 Bft) O-SO 112 10 min 1 UV-I 316 W/m 11,3 km/h (2 Bft)
03.10.2010 17:10 22,6 C 66 % 1005,2 hPa 0,0 mm 4,8 km/h (1 Bft) O-SO 112 10 min 1 UV-I 301 W/m 17,7 km/h (3 Bft)
03.10.2010 17:20 22,6 C 66 % 1005,2 hPa 0,0 mm 4,8 km/h (1 Bft) O-SO 112 10 min 1 UV-I 272 W/m 16,1 km/h (3 Bft)
03.10.2010 17:30 22,3 C 67 % 1005,2 hPa 0,0 mm 4,8 km/h (1 Bft) O-SO 112 10 min 1 UV-I 237 W/m 17,7 km/h (3 Bft)
03.10.2010 17:40 22,2 C 67 % 1005,1 hPa 0,0 mm 3,2 km/h (1 Bft) O-SO 112 10 min 1 UV-I 204 W/m 11,3 km/h (2 Bft)
03.10.2010 17:50 21,9 C 68 % 1005,1 hPa 0,0 mm 3,2 km/h (1 Bft) O 90 10 min 1 UV-I 172 W/m 14,5 km/h (3 Bft)
03.10.2010 18:00 21,6 C 68 % 1005,1 hPa 0,0 mm 3,2 km/h (1 Bft) O 90 10 min 0 UV-I 148 W/m 11,3 km/h (2 Bft)
03.10.2010 18:10 21,3 C 69 % 1005,1 hPa 0,0 mm 3,2 km/h (1 Bft) O-SO 112 10 min 0 UV-I 127 W/m 14,5 km/h (3 Bft)
03.10.2010 18:20 20,8 C 71 % 1005,1 hPa 0,0 mm 3,2 km/h (1 Bft) O 90 0 min 0 UV-I 40 W/m 17,7 km/h (3 Bft)
03.10.2010 18:30 20,2 C 73 % 1005,0 hPa 0,0 mm 4,8 km/h (1 Bft) O-SO 112 0 min 0 UV-I 18 W/m 16,1 km/h (3 Bft)
03.10.2010 18:40 19,7 C 75 % 1004,9 hPa 0,0 mm 4,8 km/h (1 Bft) O-SO 112 0 min 0 UV-I 18 W/m 11,3 km/h (2 Bft)
03.10.2010 18:50 19,4 C 76 % 1004,8 hPa 0,0 mm 4,8 km/h (1 Bft) O-SO 112 0 min 0 UV-I 9 W/m 9,7 km/h (2 Bft)
03.10.2010 19:00 19,0 C 77 % 1004,7 hPa 0,0 mm 3,2 km/h (1 Bft) O-SO 112 0 min 0 UV-I 0 W/m 14,5 km/h (3 Bft)
03.10.2010 19:10 18,8 C 76 % 1004,8 hPa 0,0 mm 4,8 km/h (1 Bft) O-SO 112 0 min 0 UV-I 0 W/m 14,5 km/h (3 Bft)
03.10.2010 19:20 18,9 C 75 % 1005,0 hPa 0,0 mm 4,8 km/h (1 Bft) O-SO 112 0 min 0 UV-I 0 W/m 20,9 km/h (4 Bft)
03.10.2010 19:30 18,8 C 76 % 1005,1 hPa 0,0 mm 4,8 km/h (1 Bft) O-SO 112 0 min 0 UV-I 0 W/m 19,3 km/h (3 Bft)
03.10.2010 19:40 18,6 C 76 % 1005,1 hPa 0,0 mm 3,2 km/h (1 Bft) O-SO 112 0 min 0 UV-I 0 W/m 11,3 km/h (2 Bft)
03.10.2010 19:50 18,4 C 77 % 1005,1 hPa 0,0 mm 1,6 km/h (1 Bft) O-SO 112 0 min 0 UV-I 0 W/m 8,0 km/h (2 Bft)
03.10.2010 20:00 18,3 C 77 % 1005,2 hPa 0,0 mm 1,6 km/h (1 Bft) O-SO 112 0 min 0 UV-I 0 W/m 8,0 km/h (2 Bft)
03.10.2010 20:10 18,1 C 77 % 1005,3 hPa 0,0 mm 3,2 km/h (1 Bft) O-SO 112 0 min 0 UV-I 0 W/m 11,3 km/h (2 Bft)
03.10.2010 20:20 17,9 C 78 % 1005,1 hPa 0,0 mm 3,2 km/h (1 Bft) O-SO 112 0 min 0 UV-I 0 W/m 14,5 km/h (3 Bft)
03.10.2010 20:30 17,8 C 78 % 1005,2 hPa 0,0 mm 3,2 km/h (1 Bft) SO 135 0 min 0 UV-I 0 W/m 16,1 km/h (3 Bft)
03.10.2010 20:40 17,7 C 78 % 1005,2 hPa 0,0 mm 1,6 km/h (1 Bft) O-SO 112 0 min 0 UV-I 0 W/m 8,0 km/h (2 Bft)
03.10.2010 20:50 17,4 C 79 % 1005,1 hPa 0,0 mm 1,6 km/h (1 Bft) O-SO 112 0 min 0 UV-I 0 W/m 8,0 km/h (2 Bft)
03.10.2010 21:00 17,3 C 80 % 1005,1 hPa 0,0 mm 1,6 km/h (1 Bft) O-SO 112 0 min 0 UV-I 0 W/m 9,7 km/h (2 Bft)
03.10.2010 21:10 17,2 C 80 % 1005,1 hPa 0,0 mm 1,6 km/h (1 Bft) O 90 0 min 0 UV-I 0 W/m 4,8 km/h (1 Bft)
03.10.2010 21:20 17,1 C 80 % 1005,1 hPa 0,0 mm 0,0 km/h (0 Bft) SO 135 0 min 0 UV-I 0 W/m 3,2 km/h (1 Bft)
03.10.2010 21:30 16,8 C 81 % 1005,1 hPa 0,0 mm 1,6 km/h (1 Bft) O 90 0 min 0 UV-I 0 W/m 6,4 km/h (2 Bft)
03.10.2010 21:40 16,7 C 81 % 1005,1 hPa 0,0 mm 3,2 km/h (1 Bft) O 90 0 min 0 UV-I 0 W/m 8,0 km/h (2 Bft)
03.10.2010 21:50 16,9 C 81 % 1005,1 hPa 0,0 mm 3,2 km/h (1 Bft) O 90 0 min 0 UV-I 0 W/m 9,7 km/h (2 Bft)
03.10.2010 22:00 17,0 C 81 % 1005,1 hPa 0,0 mm 1,6 km/h (1 Bft) O-SO 112 0 min 0 UV-I 0 W/m 8,0 km/h (2 Bft)
03.10.2010 22:10 16,9 C 81 % 1005,1 hPa 0,0 mm 3,2 km/h (1 Bft) O-SO 112 0 min 0 UV-I 0 W/m 14,5 km/h (3 Bft)
03.10.2010 22:20 16,9 C 81 % 1005,0 hPa 0,0 mm 3,2 km/h (1 Bft) O 90 0 min 0 UV-I 0 W/m 9,7 km/h (2 Bft)
03.10.2010 22:30 16,7 C 81 % 1004,8 hPa 0,0 mm 1,6 km/h (1 Bft) O 90 0 min 0 UV-I 0 W/m 8,0 km/h (2 Bft)
03.10.2010 22:40 16,6 C 82 % 1004,8 hPa 0,0 mm 0,0 km/h (0 Bft) O 90 0 min 0 UV-I 0 W/m 3,2 km/h (1 Bft)
03.10.2010 22:50 16,3 C 83 % 1004,7 hPa 0,0 mm 0,0 km/h (0 Bft) O 90 0 min 0 UV-I 0 W/m 6,4 km/h (2 Bft)
03.10.2010 23:00 16,1 C 83 % 1004,8 hPa 0,0 mm 0,0 km/h (0 Bft) O 90 0 min 0 UV-I 0 W/m 3,2 km/h (1 Bft)
03.10.2010 23:10 15,8 C 84 % 1004,8 hPa 0,0 mm 0,0 km/h (0 Bft) O 90 0 min 0 UV-I 0 W/m 1,6 km/h (1 Bft)
03.10.2010 23:20 15,5 C 85 % 1004,8 hPa 0,0 mm 1,6 km/h (1 Bft) O 90 0 min 0 UV-I 0 W/m 6,4 km/h (2 Bft)
03.10.2010 23:30 15,6 C 85 % 1004,6 hPa 0,0 mm 1,6 km/h (1 Bft) O-SO 112 0 min 0 UV-I 0 W/m 6,4 km/h (2 Bft)
03.10.2010 23:40 15,7 C 84 % 1004,7 hPa 0,0 mm 1,6 km/h (1 Bft) O 90 0 min 0 UV-I 0 W/m 11,3 km/h (2 Bft)
03.10.2010 23:50 15,8 C 84 % 1004,7 hPa 0,0 mm 3,2 km/h (1 Bft) O-SO 112 0 min 0 UV-I 0 W/m 11,3 km/h (2 Bft)
_ Min-Zeit 00:00 15:30 23:30 - 21:20 - - - - - 23:10
Minimum _ 13,7 C 64 % 1004,6 hPa - 0,0 km/h (0 Bft) - - - - - 1,6 km/h (1 Bft)
_ Max-Zeit 16:50 03:20 00:00 05:40 07:30 - - 11:00 14:40 14:40 10:20
Maximum _ 22,7 C 92 % 1011,4 hPa 0,3 mm 8,0 km/h
O-SO (2 Bft)
- - 10 min 3 UV-I 742 W/m 24,1 km/h
S-SO (4 Bft)
Durchschnitt _ 17,0 C 81 % 1007,6 hPa #0,5 mm 3,7 km/h (1 Bft) O-SO - #5:30 h 2 UV-I 266 W/m 13,6 km/h (3 Bft)